Hourly Weather Ovidiopol

Today, 3 August, Monday

Time Temperature Precipitation Wind Pressure Humidity
00:00 +19°C° 0 mm 2 mps 757 mmHg 56%
01:00 +19°C° 0 mm 2 mps 757 mmHg 58%
02:00 +19°C° 0 mm 2 mps 757 mmHg 57%
03:00 +18°C° 0 mm 2 mps 757 mmHg 59%
04:00 +18°C° 0 mm 2 mps 757 mmHg 61%
05:00 +18°C° 0 mm 2 mps 757 mmHg 63%
06:00 +20°C° 0 mm 3 mps 757 mmHg 58%
07:00 +22°C° 0 mm 3 mps 757 mmHg 54%
08:00 +25°C° 0 mm 3 mps 758 mmHg 48%
09:00 +25°C° 0 mm 3 mps 758 mmHg 44%
10:00 +26°C° 0 mm 3 mps 758 mmHg 41%
11:00 +27°C° 0 mm 3 mps 758 mmHg 38%
12:00 +27°C° 0 mm 4 mps 757 mmHg 38%
13:00 +28°C° 0 mm 4 mps 757 mmHg 38%
14:00 +28°C° 0 mm 4 mps 757 mmHg 37%
15:00 +27°C° 0 mm 4 mps 756 mmHg 38%
16:00 +27°C° 0 mm 4 mps 756 mmHg 39%
17:00 +27°C° 0 mm 3 mps 756 mmHg 39%
18:00 +25°C° 0 mm 3 mps 756 mmHg 44%
19:00 +23°C° 0 mm 2 mps 756 mmHg 49%
20:00 +21°C° 0 mm 2 mps 756 mmHg 55%
21:00 +20°C° 0 mm 2 mps 756 mmHg 56%
22:00 +20°C° 0 mm 2 mps 756 mmHg 57%
23:00 +19°C° 0 mm 2 mps 756 mmHg 59%

Tomorrow, 4 August, Tuesday

Time Temperature Precipitation Wind Pressure Humidity
00:00 +19°C° 0 mm 2 mps 756 mmHg 60%
01:00 +20°C° 0 mm 1 mps 756 mmHg 61%
02:00 +20°C° 0 mm 1 mps 756 mmHg 62%
03:00 +20°C° 0 mm 1 mps 756 mmHg 62%
04:00 +19°C° 0 mm 2 mps 756 mmHg 63%
05:00 +19°C° 0 mm 2 mps 756 mmHg 63%
06:00 +21°C° 0 mm 2 mps 756 mmHg 59%
07:00 +24°C° 0 mm 3 mps 756 mmHg 54%
08:00 +26°C° 0 mm 4 mps 756 mmHg 50%
09:00 +27°C° 0 mm 4 mps 756 mmHg 47%
10:00 +28°C° 0 mm 5 mps 756 mmHg 43%
11:00 +29°C° 0 mm 5 mps 756 mmHg 40%
12:00 +29°C° 0 mm 5 mps 756 mmHg 39%
13:00 +29°C° 0 mm 5 mps 756 mmHg 39%
14:00 +29°C° 0 mm 4 mps 755 mmHg 38%
15:00 +29°C° 0 mm 4 mps 755 mmHg 38%
16:00 +29°C° 0 mm 4 mps 755 mmHg 39%
17:00 +28°C° 0 mm 3 mps 755 mmHg 39%
18:00 +26°C° 0 mm 3 mps 755 mmHg 47%
19:00 +24°C° 0 mm 2 mps 755 mmHg 55%
20:00 +23°C° 0 mm 2 mps 755 mmHg 63%
21:00 +21°C° 0 mm 2 mps 755 mmHg 65%
22:00 +21°C° 0 mm 2 mps 755 mmHg 66%
23:00 +21°C° 0 mm 3 mps 756 mmHg 68%

Day after tomorrow, 5 August, Wednesday

Time Temperature Precipitation Wind Pressure Humidity
00:00 +21°C° 0 mm 3 mps 755 mmHg 69%
01:00 +21°C° 0 mm 4 mps 755 mmHg 69%
02:00 +21°C° 0 mm 4 mps 755 mmHg 70%
03:00 +21°C° 0 mm 4 mps 755 mmHg 71%
04:00 +21°C° 0 mm 4 mps 755 mmHg 72%
05:00 +20°C° 0 mm 4 mps 755 mmHg 73%
06:00 +22°C° 0 mm 5 mps 756 mmHg 66%
07:00 +24°C° 0 mm 6 mps 756 mmHg 59%
08:00 +27°C° 0 mm 7 mps 756 mmHg 51%
09:00 +28°C° 0 mm 6 mps 756 mmHg 47%
10:00 +29°C° 0 mm 6 mps 756 mmHg 42%
11:00 +30°C° 0 mm 6 mps 756 mmHg 38%
12:00 +30°C° 0 mm 6 mps 756 mmHg 35%
13:00 +32°C° 0 mm 5 mps 756 mmHg 33%
14:00 +32°C° 0 mm 5 mps 756 mmHg 31%
15:00 +32°C° 0 mm 4 mps 756 mmHg 31%
16:00 +32°C° 0 mm 4 mps 756 mmHg 31%
17:00 +30°C° 0 mm 4 mps 755 mmHg 32%
18:00 +28°C° 0 mm 3 mps 756 mmHg 38%
19:00 +27°C° 0 mm 3 mps 756 mmHg 44%
20:00 +25°C° 0 mm 2 mps 756 mmHg 50%
21:00 +24°C° 0 mm 2 mps 756 mmHg 53%
22:00 +24°C° 0 mm 2 mps 756 mmHg 56%
23:00 +23°C° 0 mm 2 mps 756 mmHg 59%

6 August, Thursday

Time Temperature Precipitation Wind Pressure Humidity
00:00 +22°C° 0 mm 3 mps 756 mmHg 58%
01:00 +22°C° 0 mm 4 mps 756 mmHg 58%
02:00 +22°C° 0 mm 5 mps 756 mmHg 57%
03:00 +22°C° 0 mm 5 mps 756 mmHg 58%
04:00 +22°C° 0 mm 5 mps 756 mmHg 58%
05:00 +21°C° 0 mm 6 mps 757 mmHg 59%
06:00 +23°C° 0 mm 6 mps 757 mmHg 56%
07:00 +26°C° 0 mm 6 mps 757 mmHg 53%
08:00 +27°C° 0 mm 6 mps 757 mmHg 51%
09:00 +29°C° 0 mm 6 mps 757 mmHg 46%
10:00 +30°C° 0 mm 6 mps 757 mmHg 41%
11:00 +32°C° 0 mm 6 mps 757 mmHg 37%
12:00 +33°C° 0 mm 6 mps 757 mmHg 35%
13:00 +34°C° 0 mm 6 mps 757 mmHg 33%
14:00 +35°C° 0 mm 6 mps 757 mmHg 31%
15:00 +35°C° 0 mm 5 mps 757 mmHg 31%
16:00 +34°C° 0 mm 5 mps 756 mmHg 32%
17:00 +34°C° 0 mm 5 mps 756 mmHg 32%
18:00 +33°C° 0 mm 4 mps 756 mmHg 37%
19:00 +30°C° 0 mm 4 mps 756 mmHg 41%
20:00 +28°C° 0 mm 3 mps 757 mmHg 46%
21:00 +28°C° 0 mm 4 mps 757 mmHg 47%
22:00 +27°C° 0 mm 5 mps 757 mmHg 48%
23:00 +26°C° 0 mm 5 mps 757 mmHg 50%

7 August, Friday

Time Temperature Precipitation Wind Pressure Humidity
00:00 +26°C° 0 mm 6 mps 757 mmHg 51%
01:00 +26°C° 0 mm 6 mps 757 mmHg 53%
02:00 +24°C° 0 mm 6 mps 757 mmHg 55%
03:00 +24°C° 0 mm 6 mps 757 mmHg 57%
04:00 +23°C° 0 mm 6 mps 757 mmHg 59%
05:00 +23°C° 0 mm 7 mps 757 mmHg 61%
06:00 +24°C° 0 mm 7 mps 758 mmHg 57%
07:00 +27°C° 0 mm 7 mps 758 mmHg 53%
08:00 +28°C° 0 mm 8 mps 758 mmHg 48%
09:00 +30°C° 0 mm 7 mps 758 mmHg 45%
10:00 +32°C° 0 mm 7 mps 758 mmHg 41%
11:00 +33°C° 0 mm 7 mps 758 mmHg 38%
12:00 +34°C° 0 mm 6 mps 757 mmHg 36%
13:00 +35°C° 0 mm 6 mps 757 mmHg 35%
14:00 +35°C° 0 mm 5 mps 757 mmHg 34%
15:00 +35°C° 0 mm 5 mps 756 mmHg 34%
16:00 +35°C° 0 mm 5 mps 756 mmHg 34%
17:00 +35°C° 0 mm 5 mps 756 mmHg 33%
18:00 +34°C° 0 mm 5 mps 756 mmHg 36%
19:00 +32°C° 0 mm 5 mps 756 mmHg 39%
20:00 +30°C° 0 mm 5 mps 756 mmHg 41%
21:00 +29°C° 0 mm 6 mps 756 mmHg 43%
22:00 +28°C° 0 mm 7 mps 756 mmHg 45%
23:00 +27°C° 0 mm 7 mps 756 mmHg 47%

8 August, Saturday

Time Temperature Precipitation Wind Pressure Humidity
00:00 +27°C° 0 mm 7 mps 756 mmHg 48%
01:00 +26°C° 0 mm 7 mps 755 mmHg 50%
02:00 +26°C° 0 mm 6 mps 755 mmHg 51%
03:00 +24°C° 0 mm 6 mps 755 mmHg 54%
04:00 +23°C° 0 mm 6 mps 755 mmHg 57%
05:00 +23°C° 0 mm 6 mps 755 mmHg 59%
06:00 +24°C° 0 mm 6 mps 755 mmHg 56%
07:00 +27°C° 0 mm 6 mps 755 mmHg 53%
08:00 +28°C° 0 mm 6 mps 755 mmHg 50%
09:00 +30°C° 0 mm 6 mps 755 mmHg 45%
10:00 +32°C° 0 mm 6 mps 755 mmHg 40%
11:00 +34°C° 0 mm 6 mps 755 mmHg 35%
12:00 +34°C° 0 mm 6 mps 755 mmHg 33%
13:00 +35°C° 0 mm 5 mps 754 mmHg 31%
14:00 +35°C° 0 mm 5 mps 754 mmHg 28%
15:00 +35°C° 0 mm 5 mps 754 mmHg 29%
16:00 +35°C° 0 mm 4 mps 753 mmHg 29%
17:00 +35°C° 0 mm 4 mps 753 mmHg 30%
18:00 +33°C° 0 mm 4 mps 753 mmHg 35%
19:00 +32°C° 0 mm 4 mps 753 mmHg 39%
20:00 +29°C° 0 mm 4 mps 753 mmHg 44%
21:00 +28°C° 0 mm 5 mps 753 mmHg 48%
22:00 +28°C° 0 mm 6 mps 753 mmHg 51%
23:00 +27°C° 0 mm 6 mps 753 mmHg 55%
Show more